SCP
0 0 0 0 0 0 0 0 0 0 0 0 0 0 0 0 0 0 0 0 0 0 0 0 0 0 0 0 0 0 0 0 0 0 0 0 0 0
0 0 0 0 0 0 0 0 0 0 0 0 0 0 0 0 0 0 0 0 0 0 0 0 0 0 0 0 0 0 0 0 0 0 0 0 0 0
0 0 0 0 0 0 0 0 0 0 0 0 0 0 0 0 0 0 0 0 0 0 0 0 0 0 0 0 0 0 0 0 0 0 0 0 0 0
0 0 0 0 0 0 0 0 0 0 0 0 0 0 0 0 0 0 0 0 0 0 0 0 0 0 0 0 0 0 0 0 0 0 0 0 0 0
0 0 0 0 0 0 0 0 0 0 0 0 0 0 0 0 0 0 0 0 0 0 0 0 0 0 0 0 0 0 0 0 0 0 0 0 0 0
0 0 0 0 0 0 0 0 0 0 0 0 0 0 0 0 0 0 0 0 0 0 0 0 0 0 0 0 0 0 0 0 0 0 0 0 0 0
0 0 0 0 0 0 0 0 0 0 0 0 0 0 0 0 0 0 0 0 0 0 0 0 0 0 0 0 0 0 0 0 0 0 0 0 0 0
0 0 0 0 0 0 0 0 0 0 0 0 0 0 0 0 0 0 0 0 0 0 0 0 0 0 0 0 0 0 0 0 0 0 0 0 0 0
0 0 0 0 0 0 0 0 0 0 0 0 0 0 0 0 0 0 0 0 0 0 0 0 0 0 0 0 0 0 0 0 0 0 0 0 0 0
0 0 0 0 0 0 0 0 0 0 0 0 0 0 0 0 0 0 0 0 0 0 0 0 0 0 0 0 0 0 0 0 0 0 0 0 0 0
0 0 0 0 0 0 0 0 0 0 0 0 0 0 0 0 0 0 0 0 0 0 0 0 0 0 0 0 0 0 0 0 0 0 0 0 0 0
0 0 0 0 0 0 0 0 0 0 0 0 0 0 0 0 0 0 0 0 0 0 0 0 0 0 0 0 0 0 0 0 0 0 0 0 0 0
0 0 0 0 0 0 0 0 0 0 0 0 0 0 0 0 0 0 0 0 0 0 0 0 0 0 0 0 0 0 0 0 0 0 0 0 0 0
0 0 0 0 0 0 0 0 0 0 0 0 0 0 0 0 0 0 0 0 0 0 0 0 0 0 0 0 0 0 0 0 0 0 0 0 0 0
0 0 0 0 0 0 0 0 0 0 0 0 0 0 0 0 0 0 0 0 0 0 0 0 0 0 0 0 0 0 0 0 0 0 0 0 0 0
0 0 0 0 0 0 0 0 0 0 0 0 0 0 0 0 0 0 0 0 0 0 0 0 0 0 0 0 0 0 0 0 0 0 0 0 0 0
0 0 0 0 0 0 0 0 0 0 0 0 0 0 0 0 0 0 0 0 0 0 0 0 0 0 0 0 0 0 0 0 0 0 0 0 0 0
0 0 0 0 0 0 0 0 0 0 0 0 0 0 0 0 0 0 0 0 0 0 0 0 0 0 0 0 0 0 0 0 0 0 0 0 0 0
0 0 0 0 0 0 0 0 0 0 0 0 0 0 0 0 0 0 0 0 0 0 0 0 0 0 0 0 0 0 0 0 0 0 0 0 0 0
0 0 0 0 0 0 0 0 0 0 0 0 0 0 0 0 0 0 0 0 0 0 0 0 0 0 0 0 0 0 0 0 0 0 0 0 0 0
0 0 0 0 0 0 0 0 0 0 0 0 0 0 0 0 0 0 0 0 0 0 0 0 0 0 0 0 0 0 0 0 0 0 0 0 0 0
0 0 0 0 0 0 0 0 0 0 0 0 0 0 0 0 0 0 0 0 0 0 0 0 0 0 0 0 0 0 0 0 0 0 0 0 0 0
0 0 0 0 0 0 0 0 0 0 0 0 0 0 0 0 0 0 0 0 0 0 0 0 0 0 0 0 0 0 0 0 0 0 0 0 0 0
Wind_Speed_500mb
41 39 37 36 34 29 23 21 20 11 12 9 10 13 18 22 25 29 30 30 30 30 30 29 28 29 29 29 29 28 27 28 27 26 23 19 17 16
43 41 38 36 33 28 24 24 22 18 14 13 16 17 20 23 26 27 30 31 32 31 32 32 33 34 33 32 32 31 30 29 30 31 29 25 21 19
44 41 39 36 33 29 28 27 23 20 20 20 20 21 24 25 28 29 32 34 32 33 34 34 35 37 36 37 36 35 32 32 34 34 32 31 28 22
44 43 41 37 34 33 31 27 26 25 25 26 26 26 27 29 31 33 34 37 35 34 35 36 37 39 39 39 40 39 35 34 36 37 35 33 31 30
44 44 39 38 36 35 31 29 30 30 32 33 32 32 33 35 36 38 37 38 38 38 37 36 39 40 41 42 43 43 38 38 38 39 37 35 36 36
48 45 41 38 36 35 33 33 34 36 35 39 37 36 39 42 42 44 45 42 42 40 45 44 40 40 40 42 42 43 43 42 42 42 41 40 39 39
51 45 41 40 39 38 37 35 37 39 41 43 42 40 42 44 46 48 52 49 47 48 41 40 40 41 40 42 44 47 48 45 44 44 44 43 42 41
49 43 42 42 41 39 38 38 42 43 44 46 47 45 45 45 45 49 54 53 57 53 51 50 48 49 43 47 47 48 47 45 44 46 46 45 46 44
47 43 44 44 42 41 41 43 46 44 46 47 49 46 47 46 50 48 51 53 57 58 60 68 57 51 43 45 48 48 46 46 45 43 45 50 50 46
46 44 45 46 44 43 44 48 47 47 45 47 49 47 49 49 50 52 53 53 57 58 56 67 68 60 48 37 42 44 44 44 43 44 49 50 45 41
46 48 48 48 44 46 48 50 47 48 45 48 51 51 52 53 51 52 51 54 60 59 58 60 55 52 61 52 41 36 35 34 31 28 35 44 44 42
47 51 49 45 44 46 50 49 52 45 46 51 54 55 56 53 53 50 48 51 52 58 41 48 55 55 48 47 10 19 21 41 52 48 50 50 51 56
51 47 43 45 47 51 52 50 50 48 52 53 54 54 52 51 47 49 47 46 49 50 53 50 58 55 52 61 65 58 55 52 49 50 52 56 59 63
48 43 46 49 53 52 51 50 49 52 50 51 51 48 47 46 41 40 44 45 46 50 45 52 59 55 58 67 74 70 64 62 62 60 60 58 60 62
49 49 53 53 51 50 49 48 47 46 44 45 43 41 37 34 32 34 36 41 44 45 45 45 49 53 58 65 74 76 76 68 68 55 58 62 61 61
52 54 52 50 51 44 44 43 40 39 36 35 32 26 23 24 28 31 32 37 47 43 37 38 42 46 55 61 66 76 69 74 67 65 70 71 65 64
51 48 49 47 43 42 42 40 34 29 26 21 25 25 25 29 30 33 37 40 47 51 47 39 41 49 55 61 69 72 70 68 62 63 64 68 65 62
47 46 44 43 42 40 34 27 21 20 21 23 24 25 26 27 29 34 39 44 53 52 51 46 50 55 61 66 63 66 65 65 55 57 63 71 77 65
40 38 37 35 31 28 28 27 23 22 24 26 29 32 36 37 38 41 47 51 52 53 53 50 53 55 62 73 76 66 62 65 72 74 69 70 77 75
34 34 32 29 26 23 20 19 20 22 21 22 25 29 32 37 38 40 42 45 50 54 56 54 51 49 55 65 71 79 66 69 68 73 74 73 73 72
26 24 21 18 14 13 12 13 14 15 17 16 18 21 26 30 33 37 42 44 50 55 60 59 55 54 57 62 73 82 75 64 61 58 64 71 79 86
18 17 14 11 10 9 7 6 7 8 11 15 20 25 29 32 36 40 44 48 50 56 61 62 59 56 57 61 72 76 77 73 65 62 57 58 61 69
14 13 11 9 7 5 3 1 5 8 11 16 22 27 31 36 41 43 46 48 52 57 59 63 62 61 60 59 63 69 71 71 70 69 65 50 48 50
Wind_Direction_500mb
238 234 233 234 237 238 242 245 251 266 273 281 301 318 326 335 332 332 331 332 330 328 321 311 305 302 306 309 307 304 300 295 292 290 289 285 286 292
235 231 229 231 234 236 239 244 249 257 265 283 292 308 317 323 324 325 328 330 329 325 319 311 305 301 302 303 303 301 298 292 292 291 287 283 282 281
233 231 230 230 232 235 242 247 254 260 268 277 286 298 304 314 316 320 322 323 327 322 319 312 305 298 297 299 300 298 294 292 293 291 288 284 276 275
233 230 230 231 232 238 244 250 258 261 267 271 282 292 299 304 309 313 315 317 320 316 316 312 305 299 295 295 297 296 291 292 293 289 286 280 274 271
234 233 232 232 236 241 247 254 259 262 267 273 280 288 295 297 302 304 305 309 311 310 308 307 302 296 292 292 293 292 289 292 290 286 281 275 275 274
231 230 230 234 238 244 250 255 259 263 269 273 278 286 293 296 297 300 301 306 307 308 308 304 297 293 291 290 289 286 287 289 287 284 279 277 277 277
229 228 231 236 239 244 251 257 263 267 271 275 279 285 291 293 295 295 298 301 305 306 307 302 299 296 294 290 287 285 284 285 283 282 278 277 278 278
231 231 233 238 242 247 254 259 263 267 272 276 282 285 289 287 290 293 295 302 305 308 308 300 299 296 293 288 285 282 280 279 279 280 277 276 281 278
232 231 235 240 243 247 253 259 264 269 271 277 280 284 284 285 286 290 292 297 300 302 302 300 303 302 297 289 284 279 277 277 277 274 274 280 282 275
230 232 236 241 244 248 253 259 265 271 275 277 279 281 280 281 285 289 290 292 294 296 299 298 305 306 302 295 291 284 278 276 275 276 279 279 278 266
230 234 240 244 247 251 255 262 267 272 276 277 278 279 279 279 280 286 292 294 296 296 297 300 306 306 306 307 299 284 276 275 278 278 276 282 277 265
233 238 243 249 251 255 258 264 269 276 272 271 272 274 277 280 284 288 287 291 294 299 298 303 303 309 314 312 308 326 278 288 290 287 283 280 277 275
235 241 246 249 251 253 259 265 272 271 269 270 272 272 273 278 284 286 286 285 288 286 296 296 299 304 300 298 296 296 296 295 291 287 282 278 276 275
238 243 245 251 256 262 270 273 272 272 271 272 272 276 279 279 282 279 282 287 287 289 290 291 292 298 298 297 297 303 303 299 297 293 289 284 279 275
238 243 250 255 263 268 269 271 271 271 271 270 277 285 291 292 290 286 283 283 282 284 290 290 293 295 291 291 296 298 302 305 304 303 299 293 289 282
240 247 256 263 264 264 265 267 267 268 272 279 287 291 297 292 294 293 291 289 288 291 292 295 295 293 292 292 293 294 300 297 303 302 299 295 293 288
246 252 256 256 259 262 263 265 268 271 279 282 278 282 287 289 291 289 292 293 294 299 299 297 295 292 291 292 292 296 300 298 303 300 296 295 292 292
251 250 252 254 257 258 259 262 265 262 265 270 279 288 289 290 293 292 293 297 300 302 301 304 300 299 298 296 295 299 298 302 304 302 300 300 296 295
243 248 249 248 246 244 246 251 255 267 276 280 287 291 291 295 297 299 299 301 302 301 301 302 301 303 303 300 305 306 305 309 310 305 304 300 298 300
232 230 230 236 242 248 258 266 268 283 289 292 291 295 298 300 302 301 300 302 304 303 304 305 305 306 297 299 300 297 302 305 305 303 303 303 298 297
221 226 230 235 251 260 268 276 283 289 294 303 309 310 308 311 311 309 307 308 307 304 304 307 310 306 303 300 296 303 310 311 308 300 303 301 300 300
225 232 239 246 246 248 257 276 292 305 319 329 329 323 319 317 314 313 310 310 311 308 307 310 312 309 305 303 303 306 310 313 310 306 295 289 287 284
221 229 229 222 207 184 180 238 311 329 333 332 328 320 320 317 314 315 313 313 314 313 315 315 316 316 314 310 308 309 313 314 316 314 308 309 300 291
Wind_Speed_850mb
41 39 37 36 34 29 23 21 20 11 12 9 10 13 18 22 25 29 30 30 30 30 30 29 28 29 29 29 29 28 27 28 27 26 23 19 17 16
43 41 38 36 33 28 24 24 22 18 14 13 16 17 20 23 26 27 30 31 32 31 32 32 33 34 33 32 32 31 30 29 30 31 29 25 21 19
44 41 39 36 33 29 28 27 23 20 20 20 20 21 24 25 28 29 32 34 32 33 34 34 35 37 36 37 36 35 32 32 34 34 32 31 28 22
44 43 41 37 34 33 31 27 26 25 25 26 26 26 27 29 31 33 34 37 35 34 35 36 37 39 39 39 40 39 35 34 36 37 35 33 31 30
44 44 39 38 36 35 31 29 30 30 32 33 32 32 33 35 36 38 37 38 38 38 37 36 39 40 41 42 43 43 38 38 38 39 37 35 36 36
48 45 41 38 36 35 33 33 34 36 35 39 37 36 39 42 42 44 45 42 42 40 45 44 40 40 40 42 42 43 43 42 42 42 41 40 39 39
51 45 41 40 39 38 37 35 37 39 41 43 42 40 42 44 46 48 52 49 47 48 41 40 40 41 40 42 44 47 48 45 44 44 44 43 42 41
49 43 42 42 41 39 38 38 42 43 44 46 47 45 45 45 45 49 54 53 57 53 51 50 48 49 43 47 47 48 47 45 44 46 46 45 46 44
47 43 44 44 42 41 41 43 46 44 46 47 49 46 47 46 50 48 51 53 57 58 60 68 57 51 43 45 48 48 46 46 45 43 45 50 50 46
46 44 45 46 44 43 44 48 47 47 45 47 49 47 49 49 50 52 53 53 57 58 56 67 68 60 48 37 42 44 44 44 43 44 49 50 45 41
46 48 48 48 44 46 48 50 47 48 45 48 51 51 52 53 51 52 51 54 60 59 58 60 55 52 61 52 41 36 35 34 31 28 35 44 44 42
47 51 49 45 44 46 50 49 52 45 46 51 54 55 56 53 53 50 48 51 52 58 41 48 55 55 48 47 10 19 21 41 52 48 50 50 51 56
51 47 43 45 47 51 52 50 50 48 52 53 54 54 52 51 47 49 47 46 49 50 53 50 58 55 52 61 65 58 55 52 49 50 52 56 59 63
48 43 46 49 53 52 51 50 49 52 50 51 51 48 47 46 41 40 44 45 46 50 45 52 59 55 58 67 74 70 64 62 62 60 60 58 60 62
49 49 53 53 51 50 49 48 47 46 44 45 43 41 37 34 32 34 36 41 44 45 45 45 49 53 58 65 74 76 76 68 68 55 58 62 61 61
52 54 52 50 51 44 44 43 40 39 36 35 32 26 23 24 28 31 32 37 47 43 37 38 42 46 55 61 66 76 69 74 67 65 70 71 65 64
51 48 49 47 43 42 42 40 34 29 26 21 25 25 25 29 30 33 37 40 47 51 47 39 41 49 55 61 69 72 70 68 62 63 64 68 65 62
47 46 44 43 42 40 34 27 21 20 21 23 24 25 26 27 29 34 39 44 53 52 51 46 50 55 61 66 63 66 65 65 55 57 63 71 77 65
40 38 37 35 31 28 28 27 23 22 24 26 29 32 36 37 38 41 47 51 52 53 53 50 53 55 62 73 76 66 62 65 72 74 69 70 77 75
34 34 32 29 26 23 20 19 20 22 21 22 25 29 32 37 38 40 42 45 50 54 56 54 51 49 55 65 71 79 66 69 68 73 74 73 73 72
26 24 21 18 14 13 12 13 14 15 17 16 18 21 26 30 33 37 42 44 50 55 60 59 55 54 57 62 73 82 75 64 61 58 64 71 79 86
18 17 14 11 10 9 7 6 7 8 11 15 20 25 29 32 36 40 44 48 50 56 61 62 59 56 57 61 72 76 77 73 65 62 57 58 61 69
14 13 11 9 7 5 3 1 5 8 11 16 22 27 31 36 41 43 46 48 52 57 59 63 62 61 60 59 63 69 71 71 70 69 65 50 48 50
Wind_Direction_850mb
238 234 233 234 237 238 242 245 251 266 273 281 301 318 326 335 332 332 331 332 330 328 321 311 305 302 306 309 307 304 300 295 292 290 289 285 286 292
235 231 229 231 234 236 239 244 249 257 265 283 292 308 317 323 324 325 328 330 329 325 319 311 305 301 302 303 303 301 298 292 292 291 287 283 282 281
233 231 230 230 232 235 242 247 254 260 268 277 286 298 304 314 316 320 322 323 327 322 319 312 305 298 297 299 300 298 294 292 293 291 288 284 276 275
233 230 230 231 232 238 244 250 258 261 267 271 282 292 299 304 309 313 315 317 320 316 316 312 305 299 295 295 297 296 291 292 293 289 286 280 274 271
234 233 232 232 236 241 247 254 259 262 267 273 280 288 295 297 302 304 305 309 311 310 308 307 302 296 292 292 293 292 289 292 290 286 281 275 275 274
231 230 230 234 238 244 250 255 259 263 269 273 278 286 293 296 297 300 301 306 307 308 308 304 297 293 291 290 289 286 287 289 287 284 279 277 277 277
229 228 231 236 239 244 251 257 263 267 271 275 279 285 291 293 295 295 298 301 305 306 307 302 299 296 294 290 287 285 284 285 283 282 278 277 278 278
231 231 233 238 242 247 254 259 263 267 272 276 282 285 289 287 290 293 295 302 305 308 308 300 299 296 293 288 285 282 280 279 279 280 277 276 281 278
232 231 235 240 243 247 253 259 264 269 271 277 280 284 284 285 286 290 292 297 300 302 302 300 303 302 297 289 284 279 277 277 277 274 274 280 282 275
230 232 236 241 244 248 253 259 265 271 275 277 279 281 280 281 285 289 290 292 294 296 299 298 305 306 302 295 291 284 278 276 275 276 279 279 278 266
230 234 240 244 247 251 255 262 267 272 276 277 278 279 279 279 280 286 292 294 296 296 297 300 306 306 306 307 299 284 276 275 278 278 276 282 277 265
233 238 243 249 251 255 258 264 269 276 272 271 272 274 277 280 284 288 287 291 294 299 298 303 303 309 314 312 308 326 278 288 290 287 283 280 277 275
235 241 246 249 251 253 259 265 272 271 269 270 272 272 273 278 284 286 286 285 288 286 296 296 299 304 300 298 296 296 296 295 291 287 282 278 276 275
238 243 245 251 256 262 270 273 272 272 271 272 272 276 279 279 282 279 282 287 287 289 290 291 292 298 298 297 297 303 303 299 297 293 289 284 279 275
238 243 250 255 263 268 269 271 271 271 271 270 277 285 291 292 290 286 283 283 282 284 290 290 293 295 291 291 296 298 302 305 304 303 299 293 289 282
240 247 256 263 264 264 265 267 267 268 272 279 287 291 297 292 294 293 291 289 288 291 292 295 295 293 292 292 293 294 300 297 303 302 299 295 293 288
246 252 256 256 259 262 263 265 268 271 279 282 278 282 287 289 291 289 292 293 294 299 299 297 295 292 291 292 292 296 300 298 303 300 296 295 292 292
251 250 252 254 257 258 259 262 265 262 265 270 279 288 289 290 293 292 293 297 300 302 301 304 300 299 298 296 295 299 298 302 304 302 300 300 296 295
243 248 249 248 246 244 246 251 255 267 276 280 287 291 291 295 297 299 299 301 302 301 301 302 301 303 303 300 305 306 305 309 310 305 304 300 298 300
232 230 230 236 242 248 258 266 268 283 289 292 291 295 298 300 302 301 300 302 304 303 304 305 305 306 297 299 300 297 302 305 305 303 303 303 298 297
221 226 230 235 251 260 268 276 283 289 294 303 309 310 308 311 311 309 307 308 307 304 304 307 310 306 303 300 296 303 310 311 308 300 303 301 300 300
225 232 239 246 246 248 257 276 292 305 319 329 329 323 319 317 314 313 310 310 311 308 307 310 312 309 305 303 303 306 310 313 310 306 295 289 287 284
221 229 229 222 207 184 180 238 311 329 333 332 328 320 320 317 314 315 313 313 314 313 315 315 316 316 314 310 308 309 313 314 316 314 308 309 300 291